• Join FlightAware (Why Join?)
  • Login
  • US Flag 
06:53AM EDT


 

Airport Tracker/Info


-or-


 

Live Flight TrackerFlight Track Log ✈ SWA2122 ✈ 13-Apr-2013 ✈ KCMH - KBWI

Flight Track Log - Related Links

Times and Time Zones

All times are in EDT time to prevent confusion due to time zone crossing. See the SWA2122 flight status page for this flight to view local times or setup timezone preferences in your user account.

Time Position Orientation Groundspeed Altitude Reporting Facility
EDT Latitude Longitude Course Direction KTS MPH feet Rate Location/Type
06:55AM 39.9956 -82.9203 97° East 176 203 2,000  Level Indianapolis Center
06:56AM 39.9964 -82.9589 272° West 179 206 3,500 2,700 Climbing Indianapolis Center
06:56AM 39.9972 -82.9886 272° West 181 208 5,000 3,120 Climbing Indianapolis Center
06:57AM 39.9836 -83.0261 245° Southwest 212 244 6,700 2,700 Climbing Indianapolis Center
06:58AM 39.9403 -82.9647 133° Southeast 284 327 9,600 2,640 Climbing Indianapolis Center
06:59AM 39.9367 -82.8325 92° East 363 418 12,100 3,120 Climbing Indianapolis Center
07:00AM 39.9444 -82.6889 86° East 394 453 16,000 3,420 Climbing Indianapolis Center
07:01AM 39.9472 -82.1191 97° East  Level FlightAware Approximate
07:01AM 39.9514 -82.5444 86° East 397 457 19,100  Level Indianapolis Center
07:02AM 39.9575 -82.3900 87° East 420 483 21,800 2,640 Climbing Indianapolis Center
07:03AM 39.9653 -82.2311 86° East 433 498 24,500 2,400 Climbing Indianapolis Center
07:04AM 39.9717 -82.0653 87° East 452 520 26,700 1,920 Climbing Indianapolis Center
07:05AM 39.9789 -81.8931 87° East 468 539 28,500 1,140 Climbing Indianapolis Center
07:06AM 39.9867 -81.6858 87° East 500 575 29,000 240 Climbing Indianapolis Center
07:07AM 39.9931 -81.4947 87° East 520 598 29,000  Level Indianapolis Center
07:08AM 39.9719 -81.3067 98° East 518 596 29,000  Level Indianapolis Center
07:09AM 39.9483 -81.1203 99° East 518 596 29,000  Level Indianapolis Center
07:10AM 39.9369 -81.0189 98° East 519 597 29,000  Level Cleveland Center
07:11AM 39.9125 -80.8347 100° East 519 597 29,000  Level Cleveland Center
07:12AM 39.8858 -80.6453 100° East 525 604 29,000  Level Cleveland Center
07:13AM 39.8608 -80.4614 100° East 525 604 29,000  Level Cleveland Center
07:14AM 39.8353 -80.2750 100° East 525 604 29,000  Level Cleveland Center
07:15AM 39.8117 -80.0911 99° East 525 604 29,000  Level Cleveland Center
07:16AM 39.7817 -79.9078 102° East 525 604 29,000 -420 Level Cleveland Center
07:17AM 39.7597 -79.7406 100° East 524 603 28,200 -900 Descending Cleveland Center
07:18AM 39.7333 -79.5656 101° East 511 588 27,200 -1,020 Descending Cleveland Center
07:19AM 39.7086 -79.3983 101° East 489 563 26,200 -960 Descending Cleveland Center
07:20AM 39.6806 -79.1964 100° East 474 545 25,100 -600 Descending Washington Center
07:21AM 39.6522 -79.0333 103° East 464 534 25,000 -60 Descending Washington Center
07:22AM 39.6069 -78.8533 108° East 469 540 25,000 -360 Level Washington Center
07:23AM 39.5719 -78.6875 105° East 475 547 24,300 -1,800 Descending Washington Center
07:24AM 39.5364 -78.5272 106° East 475 547 21,500 -2,820 Descending Washington Center
07:25AM 39.5003 -78.3725 107° East 461 531 18,700 -2,640 Descending Washington Center
07:26AM 39.4703 -78.2314 105° East 439 505 16,300 -1,860 Descending Washington Center
07:27AM 39.4397 -78.0933 106° East 414 476 15,000 -660 Descending Washington Center
07:28AM 39.4092 -77.9581 106° East 398 458 15,000 -300 Level Washington Center
07:29AM 39.4078 -77.8156 91° East 393 452 14,500 -780 Descending Washington Center
07:30AM 39.4181 -77.6950 84° East 382 440 13,500 -1,080 Descending Washington Center
07:31AM 39.4289 -77.5583 84° East 382 440 12,400 -1,200 Descending Washington Center
07:32AM 39.4414 -77.4217 83° East 382 440 11,200 -720 Descending Washington Center
07:33AM 39.4539 -77.2875 83° East 382 440 11,000 -300 Descending Washington Center
07:34AM 39.4667 -77.1167 84° East 359 413 10,600 -960 Descending Potomac TRACON
07:35AM 39.4667 -77.0000 90° East 336 387 9,000 -1,500 Descending Potomac TRACON
07:36AM 39.4667 -76.8833 90° East 318 366 7,600 -1,500 Descending Potomac TRACON
07:37AM 39.4667 -76.7833 90° East 307 353 6,100 -1,320 Descending Potomac TRACON
07:38AM 39.4500 -76.6833 102° East 300 345 5,200 -900 Descending Potomac TRACON
07:39AM 39.3833 -76.6000 136° Southeast 294 338 4,400 -600 Descending Potomac TRACON
07:40AM 39.3333 -76.5333 134° Southeast 282 325 4,000 -180 Descending Potomac TRACON
07:41AM 39.2833 -76.5167 166° South 239 275 4,100 -120 Climbing Potomac TRACON
07:42AM 39.2167 -76.5000 169° South 234 269 3,800 -660 Descending Potomac TRACON
07:43AM 39.1667 -76.5333 207° Southwest 205 236 2,900 -900 Descending Potomac TRACON
07:44AM 39.1333 -76.5833 229° Southwest 181 208 2,100 -960 Descending Potomac TRACON
07:45AM 39.1333 -76.6333 270° West 141 162 1,100 -1,020 Descending Potomac TRACON
07:47AM 39.1667 -76.6667 270° West  Level FlightAware Approximate
07:54AM 39.1754 -76.6683 270° West  Level Estimated
07:55AM 39.1754 -76.6683 270° West  Level Estimated